When you browse on this site, cookies collect data to enhance your experience and personalize the content and advertising you see.
Visit our Privacy Policy to learn more. By continuing to use the site, you agree to this use of cookies and data.
EN

Hourly Weather Madaba

Today, 14 August, Friday

Time Temperature Precipitation Wind Pressure Humidity
00:00 +23°C° 0 mm 2 mps 691 mmHg 65%
01:00 +21°C° 0 mm 2 mps 691 mmHg 66%
02:00 +21°C° 0 mm 2 mps 691 mmHg 70%
03:00 +20°C° 0 mm 2 mps 691 mmHg 74%
04:00 +20°C° 0 mm 2 mps 691 mmHg 77%
05:00 +20°C° 0 mm 2 mps 691 mmHg 81%
06:00 +23°C° 0 mm 2 mps 691 mmHg 71%
07:00 +25°C° 0 mm 3 mps 692 mmHg 61%
08:00 +27°C° 0 mm 3 mps 692 mmHg 50%
09:00 +28°C° 0 mm 4 mps 692 mmHg 44%
10:00 +30°C° 0 mm 4 mps 692 mmHg 38%
11:00 +33°C° 0 mm 5 mps 692 mmHg 32%
12:00 +33°C° 0 mm 5 mps 692 mmHg 30%
13:00 +34°C° 0 mm 5 mps 691 mmHg 28%
14:00 +35°C° 0 mm 6 mps 691 mmHg 25%
15:00 +34°C° 0 mm 6 mps 691 mmHg 27%
16:00 +34°C° 0 mm 7 mps 691 mmHg 29%
17:00 +33°C° 0 mm 8 mps 691 mmHg 30%
18:00 +30°C° 0 mm 6 mps 691 mmHg 38%
19:00 +27°C° 0 mm 4 mps 691 mmHg 46%
20:00 +25°C° 0 mm 3 mps 690 mmHg 55%
21:00 +25°C° 0 mm 3 mps 690 mmHg 56%
22:00 +24°C° 0 mm 3 mps 690 mmHg 58%
23:00 +22°C° 0 mm 3 mps 690 mmHg 60%

Tomorrow, 15 August, Saturday

Time Temperature Precipitation Wind Pressure Humidity
00:00 +23°C° 0 mm 2 mps 690 mmHg 62%
01:00 +21°C° 0 mm 2 mps 690 mmHg 65%
02:00 +21°C° 0 mm 2 mps 689 mmHg 67%
03:00 +20°C° 0 mm 2 mps 689 mmHg 69%
04:00 +20°C° 0 mm 2 mps 690 mmHg 70%
05:00 +20°C° 0 mm 2 mps 690 mmHg 72%
06:00 +23°C° 0 mm 2 mps 690 mmHg 64%
07:00 +25°C° 0 mm 3 mps 690 mmHg 57%
08:00 +27°C° 0 mm 3 mps 690 mmHg 49%
09:00 +28°C° 0 mm 3 mps 691 mmHg 43%
10:00 +30°C° 0 mm 4 mps 691 mmHg 36%
11:00 +33°C° 0 mm 5 mps 691 mmHg 30%
12:00 +34°C° 0 mm 5 mps 691 mmHg 28%
13:00 +35°C° 0 mm 5 mps 691 mmHg 27%
14:00 +35°C° 0 mm 5 mps 691 mmHg 25%
15:00 +35°C° 0 mm 6 mps 691 mmHg 26%
16:00 +34°C° 0 mm 7 mps 690 mmHg 26%
17:00 +33°C° 0 mm 8 mps 690 mmHg 27%
18:00 +30°C° 0 mm 6 mps 690 mmHg 34%
19:00 +28°C° 0 mm 4 mps 690 mmHg 41%
20:00 +25°C° 0 mm 2 mps 690 mmHg 49%
21:00 +24°C° 0 mm 2 mps 690 mmHg 52%
22:00 +23°C° 0 mm 2 mps 690 mmHg 54%
23:00 +21°C° 0 mm 2 mps 690 mmHg 57%

Day after tomorrow, 16 August, Sunday

Time Temperature Precipitation Wind Pressure Humidity
00:00 +21°C° 0 mm 2 mps 689 mmHg 58%
01:00 +22°C° 0 mm 1 mps 689 mmHg 58%
02:00 +21°C° 0 mm 1 mps 689 mmHg 59%
03:00 +21°C° 0 mm 1 mps 689 mmHg 60%
04:00 +20°C° 0 mm 1 mps 689 mmHg 61%
05:00 +19°C° 0 mm 2 mps 689 mmHg 62%
06:00 +23°C° 0 mm 2 mps 690 mmHg 53%
07:00 +25°C° 0 mm 2 mps 690 mmHg 45%
08:00 +27°C° 0 mm 2 mps 691 mmHg 36%
09:00 +29°C° 0 mm 3 mps 691 mmHg 31%
10:00 +32°C° 0 mm 4 mps 691 mmHg 27%
11:00 +33°C° 0 mm 4 mps 692 mmHg 22%
12:00 +34°C° 0 mm 4 mps 691 mmHg 21%
13:00 +35°C° 0 mm 4 mps 691 mmHg 20%
14:00 +36°C° 0 mm 4 mps 691 mmHg 19%
15:00 +35°C° 0 mm 5 mps 691 mmHg 20%
16:00 +34°C° 0 mm 6 mps 691 mmHg 21%
17:00 +34°C° 0 mm 7 mps 691 mmHg 22%
18:00 +30°C° 0 mm 6 mps 691 mmHg 27%
19:00 +28°C° 0 mm 4 mps 691 mmHg 32%
20:00 +25°C° 0 mm 3 mps 691 mmHg 36%
21:00 +24°C° 0 mm 3 mps 691 mmHg 38%
22:00 +23°C° 0 mm 2 mps 690 mmHg 39%
23:00 +23°C° 0 mm 2 mps 690 mmHg 40%

17 August, Monday

Time Temperature Precipitation Wind Pressure Humidity
00:00 +21°C° 0 mm 2 mps 690 mmHg 41%
01:00 +21°C° 0 mm 1 mps 690 mmHg 41%
02:00 +21°C° 0 mm 1 mps 690 mmHg 42%
03:00 +20°C° 0 mm 1 mps 690 mmHg 44%
04:00 +20°C° 0 mm 1 mps 690 mmHg 45%
05:00 +20°C° 0 mm 1 mps 690 mmHg 47%
06:00 +23°C° 0 mm 2 mps 691 mmHg 40%
07:00 +25°C° 0 mm 2 mps 691 mmHg 33%
08:00 +28°C° 0 mm 2 mps 692 mmHg 26%
09:00 +30°C° 0 mm 3 mps 692 mmHg 24%
10:00 +31°C° 0 mm 3 mps 692 mmHg 21%
11:00 +34°C° 0 mm 3 mps 692 mmHg 18%
12:00 +34°C° 0 mm 4 mps 692 mmHg 17%
13:00 +35°C° 0 mm 4 mps 692 mmHg 17%
14:00 +36°C° 0 mm 4 mps 692 mmHg 16%
15:00 +35°C° 0 mm 5 mps 691 mmHg 19%
16:00 +35°C° 0 mm 5 mps 691 mmHg 21%
17:00 +34°C° 0 mm 6 mps 691 mmHg 24%
18:00 +30°C° 0 mm 4 mps 691 mmHg 31%
19:00 +27°C° 0 mm 3 mps 691 mmHg 38%
20:00 +25°C° 0 mm 2 mps 691 mmHg 45%
21:00 +24°C° 0 mm 2 mps 691 mmHg 46%
22:00 +23°C° 0 mm 1 mps 691 mmHg 48%
23:00 +22°C° 0 mm 1 mps 690 mmHg 49%

18 August, Tuesday

Time Temperature Precipitation Wind Pressure Humidity
00:00 +21°C° 0 mm 1 mps 690 mmHg 48%
01:00 +21°C° 0 mm 1 mps 690 mmHg 47%
02:00 +20°C° 0 mm 2 mps 690 mmHg 46%
03:00 +19°C° 0 mm 2 mps 690 mmHg 50%
04:00 +19°C° 0 mm 2 mps 690 mmHg 54%
05:00 +18°C° 0 mm 2 mps 690 mmHg 59%
06:00 +21°C° 0 mm 2 mps 690 mmHg 51%
07:00 +24°C° 0 mm 2 mps 691 mmHg 44%
08:00 +26°C° 0 mm 3 mps 692 mmHg 37%
09:00 +28°C° 0 mm 3 mps 692 mmHg 32%
10:00 +29°C° 0 mm 3 mps 692 mmHg 27%
11:00 +32°C° 0 mm 4 mps 692 mmHg 23%
12:00 +33°C° 0 mm 4 mps 691 mmHg 22%
13:00 +33°C° 0 mm 4 mps 691 mmHg 22%
14:00 +34°C° 0 mm 4 mps 691 mmHg 22%
15:00 +34°C° 0 mm 5 mps 691 mmHg 25%
16:00 +33°C° 0 mm 5 mps 690 mmHg 28%
17:00 +32°C° 0 mm 6 mps 690 mmHg 31%
18:00 +29°C° 0 mm 4 mps 690 mmHg 39%
19:00 +26°C° 0 mm 3 mps 690 mmHg 48%
20:00 +24°C° 0 mm 2 mps 690 mmHg 57%
21:00 +23°C° 0 mm 2 mps 690 mmHg 59%
22:00 +21°C° 0 mm 2 mps 690 mmHg 61%
23:00 +20°C° 0 mm 2 mps 690 mmHg 63%

19 August, Wednesday

Time Temperature Precipitation Wind Pressure Humidity
00:00 +20°C° 0 mm 2 mps 690 mmHg 62%
01:00 +20°C° 0 mm 2 mps 689 mmHg 61%
02:00 +19°C° 0 mm 2 mps 689 mmHg 60%
03:00 +19°C° 0 mm 2 mps 689 mmHg 62%
04:00 +19°C° 0 mm 2 mps 689 mmHg 64%
05:00 +18°C° 0 mm 2 mps 689 mmHg 66%
06:00 +20°C° 0 mm 2 mps 690 mmHg 59%
07:00 +22°C° 0 mm 3 mps 690 mmHg 52%
08:00 +25°C° 0 mm 3 mps 691 mmHg 45%
09:00 +27°C° 0 mm 3 mps 691 mmHg 40%
10:00 +29°C° 0 mm 4 mps 691 mmHg 34%
11:00 +30°C° 0 mm 4 mps 691 mmHg 28%
12:00 +33°C° 0 mm 4 mps 691 mmHg 27%
13:00 +34°C° 0 mm 4 mps 691 mmHg 25%
14:00 +35°C° 0 mm 5 mps 690 mmHg 24%
15:00 +34°C° 0 mm 5 mps 690 mmHg 26%
16:00 +33°C° 0 mm 5 mps 690 mmHg 28%
17:00 +33°C° 0 mm 5 mps 690 mmHg 30%
18:00 +29°C° 0 mm 4 mps 690 mmHg 39%
19:00 +27°C° 0 mm 3 mps 690 mmHg 48%
20:00 +24°C° 0 mm 2 mps 690 mmHg 57%
21:00 +23°C° 0 mm 2 mps 690 mmHg 58%
22:00 +23°C° 0 mm 2 mps 690 mmHg 58%
23:00 +21°C° 0 mm 2 mps 690 mmHg 58%
Show more